"America/Chicago Time","Lifetime Energy (kWh)","Power (W)","AC Volts RMS (V) ","AC Amps RMS (mA)","Grid Frequency (Hz)","Inverter Temperature (C)"
"06/08/12 05:57:43","94.8528","0.0","214.31","0","60.0","20"
"06/08/12 06:02:43","94.8531","0.0","213.43","0","60.03","20"
"06/08/12 06:07:42","94.8534","0.0","213.94","0","60.03","20"
"06/08/12 06:12:43","94.8538","7.2","212.61","0","60.03","21"
"06/08/12 06:17:44","94.8543","0.0","212.41","244","60.0","21"
"06/08/12 06:22:43","94.8549","0.0","216.19","235","60.07","21"
"06/08/12 06:27:42","94.8555","14.4","210.9","22","60.0","22"
"06/08/12 06:32:43","94.8563","12.8","214.19","2","60.03","22"
"06/08/12 06:37:44","94.8574","11.2","214.07","7","60.03","23"
"06/08/12 06:42:43","94.8586","28.4","213.8","60","60.0","23"
"06/08/12 06:47:42","94.8601","22.1","214.6","27","60.03","23"
"06/08/12 06:52:42","94.8618","28.2","215.83","271","60.03","24"
"06/08/12 06:57:42","94.8637","28.9","215.3","226","60.03","24"
"06/08/12 07:02:43","94.8659","33.3","214.92","141","60.0","24"
"06/08/12 07:07:43","94.8683","31.4","214.16","112","60.03","25"
"06/08/12 07:12:42","94.871","32.2","214.84","181","60.03","25"
"06/08/12 07:17:43","94.874","35.8","214.16","233","60.0","26"
"06/08/12 07:22:44","94.8772","38.0","214.87","186","59.96","26"
"06/08/12 07:27:42","94.8808","50.2","214.38","217","60.03","27"
"06/08/12 07:32:43","94.8846","48.6","214.87","235","60.03","28"
"06/08/12 07:37:43","94.8846","54.2","215.04","184","59.96","28"
"06/08/12 07:42:43","94.8885","42.7","214.68","301","60.03","29"
"06/08/12 07:47:43","94.8927","67.4","215.13","410","60.0","29"
"06/08/12 07:52:43","94.8976","77.2","215.05","387","60.0","30"
"06/08/12 07:57:43","94.9038","82.4","215.63","406","59.96","31"
"06/08/12 08:02:43","94.9101","82.2","215.84","407","60.03","32"
"06/08/12 08:07:42","94.9167","84.6","215.13","417","60.03","32"
"06/08/12 08:12:43","94.923","75.7","214.5","378","60.03","32"
"06/08/12 08:17:44","94.9286","61.6","213.57","317","60.0","33"
"06/08/12 08:22:44","94.9319","28.2","214.28","279","60.0","33"
"06/08/12 08:27:44","94.9341","20.0","213.0","248","60.03","32"
"06/08/12 08:32:43","94.9364","36.4","214.75","215","60.03","32"
"06/08/12 08:37:44","94.9397","57.0","215.13","343","60.07","32"
"06/08/12 08:42:44","94.9438","64.9","215.21","328","60.03","31"
"06/08/12 08:47:43","94.9494","75.2","214.49","372","60.03","31"
"06/08/12 08:52:44","94.9555","81.1","214.8","399","60.0","32"
"06/08/12 08:57:43","94.9611","60.8","214.45","313","60.03","32"
"06/08/12 09:02:42","94.9661","62.8","214.85","321","60.03","32"
"06/08/12 09:07:43","94.9738","108.5","215.5","515","60.0","32"
"06/08/12 09:12:44","94.9823","85.9","215.31","421","60.03","33"
"06/08/12 09:17:43","94.9886","76.7","214.45","382","60.03","33"
"06/08/12 09:22:43","94.9934","54.7","214.42","257","60.0","33"
"06/08/12 09:27:43","94.9973","40.8","214.8","303","60.0","32"
"06/08/12 09:32:43","95.0011","51.7","213.17","371","60.03","32"
"06/08/12 09:37:43","95.0049","56.2","213.2","178","60.0","32"
"06/08/12 09:42:43","95.0088","56.6","213.68","273","60.0","32"
"06/08/12 09:47:43","95.0127","42.1","214.49","360","60.03","31"
"06/08/12 09:52:42","95.0166","56.8","214.02","195","60.03","31"
"06/08/12 09:57:44","95.0204","45.1","216.36","325","60.03","31"
"06/08/12 10:02:43","95.0243","67.8","215.93","366","60.03","31"
"06/08/12 10:07:43","95.0292","95.3","216.41","458","60.0","31"
"06/08/12 10:12:43","95.0354","70.3","215.87","350","60.0","31"
"06/08/12 10:17:42","95.0395","49.0","214.69","211","60.03","31"
"06/08/12 10:22:42","95.0427","41.6","214.96","111","60.03","31"
"06/08/12 10:27:43","95.0454","33.3","215.23","206","60.03","31"
"06/08/12 10:32:42","95.0475","25.4","214.9","257","60.0","31"
"06/08/12 10:37:44","95.0502","45.9","214.44","186","60.03","31"
"06/08/12 10:42:43","95.0534","46.8","214.05","99","60.03","30"
"06/08/12 10:47:44","95.0566","36.4","215.32","147","60.03","30"
"06/08/12 10:52:44","95.0599","37.1","214.73","199","60.0","30"
"06/08/12 10:57:43","95.0629","31.6","215.14","201","60.03","30"
"06/08/12 11:02:43","95.0653","31.0","214.27","103","60.03","30"
"06/08/12 11:07:43","95.0675","37.3","210.73","265","60.03","30"
"06/08/12 11:12:44","95.0701","29.6","216.78","70","60.03","30"
"06/08/12 11:17:43","95.0728","34.4","216.18","251","60.03","30"
"06/08/12 11:22:44","95.0762","60.0","215.55","325","60.0","30"
"06/08/12 11:27:43","95.0801","56.2","215.64","324","60.03","30"
"06/08/12 11:32:44","95.086","91.8","214.01","449","60.0","31"
"06/08/12 11:37:43","95.0924","70.3","215.82","353","60.0","31"
"06/08/12 11:42:43","95.0979","66.3","215.11","338","59.96","31"
"06/08/12 11:47:43","95.1024","38.6","215.92","164","60.0","31"
"06/08/12 11:52:44","95.1059","44.2","215.83","357","60.0","31"
"06/08/12 11:57:44","95.1102","46.0","215.64","203","60.03","31"
"06/08/12 12:02:44","95.1131","40.6","215.93","267","60.03","31"
"06/08/12 12:07:43","95.1165","42.8","215.48","328","60.03","30"
"06/08/12 12:12:43","95.1202","35.6","214.66","298","60.03","30"
"06/08/12 12:17:43","95.1231","30.9","214.29","246","60.0","30"
"06/08/12 12:22:43","95.1241","10.6","214.38","10","60.03","30"
"06/08/12 12:27:43","95.1251","11.5","214.75","18","60.03","29"
"06/08/12 12:32:42","95.1273","41.7","215.09","317","60.0","29"
"06/08/12 12:37:43","95.1306","53.0","215.38","284","60.03","28"
"06/08/12 12:42:43","95.1342","49.0","215.77","356","60.03","28"
"06/08/12 12:47:43","95.1375","44.6","214.82","97","60.0","28"
"06/08/12 12:52:43","95.1403","29.8","214.62","82","60.0","28"
"06/08/12 12:57:43","95.1427","31.4","214.76","243","60.0","28"
"06/08/12 13:02:43","95.1449","23.9","215.59","236","60.03","28"
"06/08/12 13:07:44","95.1472","27.5","215.58","270","60.0","28"
"06/08/12 13:12:42","95.15","47.2","215.74","206","60.03","27"
"06/08/12 13:17:42","95.1537","44.8","216.41","410","60.0","27"
"06/08/12 13:22:43","95.157","32.8","215.36","99","60.03","27"
"06/08/12 13:27:43","95.1603","37.6","215.49","240","60.0","27"
"06/08/12 13:32:43","95.1638","28.1","214.95","204","60.03","27"
"06/08/12 13:37:43","95.1656","32.7","214.32","54","60.0","27"
"06/08/12 13:42:44","95.1675","20.1","215.66","312","60.03","27"
"06/08/12 13:47:44","95.1696","27.3","214.76","31","60.0","27"
"06/08/12 13:52:42","95.1718","30.9","215.36","264","60.03","27"
"06/08/12 13:57:43","95.1753","46.5","215.31","368","60.07","26"
"06/08/12 14:02:43","95.1795","70.7","215.64","353","60.03","27"
"06/08/12 14:07:42","95.185","80.6","216.13","397","60.03","27"
"06/08/12 14:12:44","95.1906","70.1","215.09","352","60.03","27"
"06/08/12 14:17:43","95.1972","62.0","214.29","315","60.03","28"
"06/08/12 14:22:44","95.2026","64.8","215.34","330","60.03","29"
"06/08/12 14:27:43","95.2052","28.0","214.84","100","60.03","29"
"06/08/12 14:32:44","95.2059","0.0","214.01","0","60.0","29"
"06/08/12 14:37:44","95.2063","0.0","214.83","234","60.0","28"
"06/08/12 14:42:44","95.2079","25.1","215.17","291","60.03","27"
"06/08/12 14:47:42","95.2109","47.0","215.42","111","60.0","27"
"06/08/12 14:52:42","95.2164","84.3","216.55","410","60.0","27"
"06/08/12 14:57:43","95.2217","62.5","216.67","314","60.03","27"
"06/08/12 15:02:43","95.2268","71.1","215.36","359","60.03","28"
"06/08/12 15:07:43","95.2315","54.6","214.95","166","60.03","28"
"06/08/12 15:12:43","95.2348","34.8","214.25","269","60.03","28"
"06/08/12 15:17:43","95.2385","56.3","215.24","369","60.0","28"
"06/08/12 15:22:42","95.2421","47.3","214.84","300","60.0","28"
"06/08/12 15:27:43","95.2491","136.1","216.74","637","60.03","29"
"06/08/12 15:32:43","95.2591","119.5","217.39","558","60.0","30"
"06/08/12 15:37:43","95.267","78.5","216.21","382","60.0","31"
"06/08/12 15:42:43","95.2712","49.3","215.02","192","60.0","31"
"06/08/12 15:47:42","95.2751","52.4","214.39","79","60.03","31"
"06/08/12 15:52:44","95.2786","52.8","214.86","405","60.03","30"
"06/08/12 15:57:44","95.2823","35.4","214.57","336","60.03","30"
"06/08/12 16:02:43","95.2856","40.2","215.65","356","60.0","30"
"06/08/12 16:07:43","95.2911","77.3","216.3","381","60.03","30"
"06/08/12 16:12:43","95.2979","110.3","216.63","523","60.0","30"
"06/08/12 16:17:43","95.3055","43.7","215.88","112","60.03","30"
"06/08/12 16:22:43","95.3086","47.3","214.76","355","60.0","30"
"06/08/12 16:27:42","95.3122","42.0","215.67","240","60.03","29"
"06/08/12 16:32:43","95.3158","43.6","214.85","253","60.03","29"
"06/08/12 16:37:43","95.3221","97.4","216.8","465","60.0","29"
"06/08/12 16:42:44","95.3292","79.3","216.82","388","60.03","29"
"06/08/12 16:47:44","95.335","34.4","214.9","92","60.03","29"
"06/08/12 16:52:43","95.3402","56.7","216.15","140","60.03","29"
"06/08/12 16:57:43","95.3436","32.7","215.54","102","60.03","28"
"06/08/12 17:02:43","95.3456","12.8","215.19","285","60.03","28"
"06/08/12 17:07:44","95.3489","45.1","216.15","174","60.0","28"
"06/08/12 17:12:43","95.3528","37.7","216.1","123","60.0","27"
"06/08/12 17:17:42","95.3569","41.7","216.26","119","60.0","27"
"06/08/12 17:22:44","95.3607","53.4","216.87","344","60.03","27"
"06/08/12 17:27:43","95.3646","39.1","215.98","318","60.03","27"
"06/08/12 17:32:44","95.3683","50.0","215.89","98","60.03","27"
"06/08/12 17:37:43","95.372","37.5","215.55","108","60.03","27"
"06/08/12 17:42:44","95.3753","47.0","216.49","330","60.0","27"
"06/08/12 17:47:44","95.3782","30.8","215.36","252","60.03","26"
"06/08/12 17:52:43","95.3808","16.1","214.84","31","60.0","26"
"06/08/12 17:57:44","95.3823","36.2","215.02","34","60.07","26"
"06/08/12 18:02:43","95.3842","38.3","215.98","100","60.03","26"
"06/08/12 18:07:44","95.3862","24.0","216.3","261","60.03","25"
"06/08/12 18:12:43","95.3887","34.5","214.32","112","60.03","25"
"06/08/12 18:17:43","95.3912","37.0","213.74","322","60.03","25"
"06/08/12 18:22:43","95.393","14.7","214.06","14","60.03","25"
"06/08/12 18:27:44","95.3946","10.3","214.34","24","60.03","25"
"06/08/12 18:32:43","95.3958","14.2","214.07","8","60.03","25"
"06/08/12 18:37:44","95.397","15.9","214.06","6","60.03","25"
"06/08/12 18:42:44","95.3979","10.8","213.57","1","60.03","25"
"06/08/12 18:47:44","95.3986","0.0","213.92","0","60.03","24"
"06/08/12 18:52:44","95.3991","13.9","213.32","49","60.03","24"
"06/08/12 18:57:43","95.3997","11.6","213.67","1","60.03","23"
"06/08/12 19:02:44","95.4008","14.0","213.6","12","60.07","24"
"06/08/12 19:07:43","95.4018","0.0","213.38","0","60.03","23"
"06/08/12 19:12:44","95.4025","12.5","213.76","27","60.03","23"
"06/08/12 19:17:43","95.403","0.0","213.41","0","60.03","23"
"06/08/12 19:22:44","95.4033","0.0","213.41","0","60.03","23"
"06/08/12 19:27:42","95.4036","0.0","213.27","0","60.03","23"
"06/08/12 19:32:44","95.4038","12.4","213.58","236","60.03","23"
"06/08/12 19:37:44","95.4042","13.9","213.84","36","60.0","22"
"06/08/12 19:42:44","95.4045","0.0","213.2","19","60.0","22"
"06/08/12 19:47:44","95.4049","0.0","213.39","0","60.03","22"
"06/08/12 19:52:43","95.4053","10.7","213.09","2","60.03","22"
"06/08/12 19:57:43","95.4058","13.5","213.09","2","60.0","22"
"06/08/12 20:02:44","95.4062","0.0","212.62","0","60.0","22"
"06/08/12 20:07:44","95.4066","0.0","214.13","0","60.0","22"
"06/09/12 05:52:44","95.4076","0.0","215.06","133","60.03","18"
"06/09/12 05:57:44","95.4078","0.0","214.66","0","60.0","19"
"06/09/12 06:02:44","95.4083","0.0","215.53","0","60.03","19"
"06/09/12 06:07:44","95.4087","14.4","215.82","2","60.03","19"
"06/09/12 06:12:45","95.4093","0.0","215.36","151","60.0","19"
"06/09/12 06:17:45","95.4098","10.8","214.4","70","60.03","20"
"06/09/12 06:22:44","95.4104","13.2","213.82","2","60.03","20"
"06/09/12 06:27:43","95.4111","5.5","214.47","185","60.0","20"
"06/09/12 06:32:44","95.412","16.0","214.54","134","60.03","20"
"06/09/12 06:37:44","95.413","15.2","214.14","27","60.0","21"
"06/09/12 06:42:43","95.4139","16.4","214.4","8","60.0","21"
"06/09/12 06:47:45","95.415","0.0","214.69","119","60.0","22"
"06/09/12 06:52:44","95.4162","20.4","214.35","248","60.0","22"
"06/09/12 06:57:44","95.4176","12.6","213.95","33","60.0","22"
"06/09/12 07:02:44","95.4195","13.8","214.04","5","60.0","22"
"06/09/12 07:07:43","95.4213","38.4","214.44","191","60.0","23"
"06/09/12 07:12:44","95.4239","20.2","214.39","26","60.03","23"
"06/09/12 07:17:43","95.4253","16.4","214.09","204","60.03","23"
"06/09/12 07:22:43","95.4279","27.6","214.21","123","60.0","24"
"06/09/12 07:27:43","95.4296","33.0","215.29","256","60.0","24"
"06/09/12 07:32:44","95.4321","15.7","214.42","47","60.0","24"
"06/09/12 07:37:44","95.434","40.6","214.91","309","60.03","25"
"06/09/12 07:42:45","95.4368","34.1","215.26","157","60.03","25"
"06/09/12 07:47:45","95.4391","31.6","214.97","291","60.0","25"
"06/09/12 07:52:43","95.4408","47.6","215.29","321","60.0","25"
"06/09/12 07:57:44","95.4442","43.3","215.25","189","60.03","26"
"06/09/12 08:02:44","95.447","77.3","215.58","385","60.03","26"
"06/09/12 08:07:43","95.4497","26.5","214.08","262","60.0","26"
"06/09/12 08:12:44","95.4533","78.2","215.26","389","60.0","27"
"06/09/12 08:17:43","95.4571","28.9","213.83","103","60.0","27"
"06/09/12 08:22:43","95.4627","78.4","215.26","385","60.03","29"
"06/09/12 08:27:44","95.4682","30.5","214.08","148","60.03","29"
"06/09/12 08:32:43","95.4727","61.4","214.35","314","60.0","30"
"06/09/12 08:37:44","95.4774","35.1","213.74","198","60.03","31"
"06/09/12 08:47:44","95.49","103.7","216.62","494","60.0","32"
"06/09/12 08:52:44","95.4963","104.7","216.04","498","60.03","32"
"06/09/12 08:57:44","95.5029","107.3","215.98","511","60.03","33"
"06/09/12 09:02:43","95.5106","100.0","216.04","480","60.0","33"
"06/09/12 09:07:43","95.5179","20.2","213.89","22","60.03","33"
"06/09/12 09:12:43","95.5256","102.8","215.78","490","60.0","34"
"06/09/12 09:17:43","95.5336","104.4","217.01","496","60.0","34"
"06/09/12 09:22:44","95.5418","106.3","216.46","505","60.0","35"
"06/09/12 09:27:44","95.5502","109.1","217.02","519","60.03","35"
"06/09/12 09:32:43","95.5587","110.8","216.44","530","60.0","36"
"06/09/12 09:37:45","95.5676","113.0","216.43","537","60.0","36"
"06/09/12 09:42:44","95.5764","115.0","216.08","543","60.03","37"
"06/09/12 09:47:44","95.5855","116.1","215.51","550","60.03","38"
"06/09/12 09:52:44","95.5945","118.3","216.14","557","60.0","38"
"06/09/12 09:57:43","95.6037","120.6","216.61","566","60.03","38"
"06/09/12 10:02:43","95.613","122.1","216.07","576","60.0","38"
"06/09/12 10:07:44","95.6224","118.5","215.66","563","60.03","38"
"06/09/12 10:12:44","95.6316","119.6","215.27","567","60.0","38"
"06/09/12 10:17:43","95.6409","121.9","215.39","575","60.03","38"
"06/09/12 10:22:44","95.6506","125.9","216.02","591","59.96","38"
"06/09/12 10:27:44","95.6605","123.3","216.63","577","60.03","38"
"06/09/12 10:32:44","95.6701","125.1","216.51","587","60.0","38"
"06/09/12 10:37:44","95.6799","132.1","216.71","620","60.0","38"
"06/09/12 10:42:44","95.6896","131.7","216.91","612","60.03","38"
"06/09/12 10:47:43","95.6999","132.8","217.43","620","60.0","38"
"06/09/12 10:52:43","95.7103","134.7","217.02","627","60.03","38"
"06/09/12 10:57:44","95.721","135.3","216.99","631","60.03","39"
"06/09/12 11:02:43","95.732","143.2","217.81","663","60.0","39"
"06/09/12 11:07:43","95.7429","140.4","217.48","647","60.03","40"
"06/09/12 11:12:44","95.7539","141.6","217.08","658","60.0","40"
"06/09/12 11:17:43","95.7648","141.9","217.0","656","60.0","41"
"06/09/12 11:22:43","95.7763","157.0","217.85","717","60.0","41"
"06/09/12 11:27:45","95.7865","163.9","217.9","749","60.0","41"
"06/09/12 11:32:44","95.797","157.7","218.16","724","60.03","41"
"06/09/12 11:37:44","95.8085","140.1","217.15","647","60.0","41"
"06/09/12 11:42:44","95.8195","140.8","217.22","652","60.03","42"
"06/09/12 11:47:44","95.8305","142.6","217.02","665","60.03","42"
"06/09/12 11:52:44","95.8414","140.8","217.24","649","60.0","42"
"06/09/12 11:57:44","95.8522","142.1","217.31","661","60.0","42"
"06/09/12 12:02:44","95.8632","139.8","218.25","646","60.03","41"
"06/09/12 12:07:44","95.8739","132.6","217.5","619","60.0","41"
"06/09/12 12:12:44","95.8836","117.6","217.48","551","60.03","41"
"06/09/12 12:17:43","95.8941","44.0","214.56","191","60.0","41"
"06/09/12 12:22:43","95.9044","147.7","218.31","679","60.0","41"
"06/09/12 12:27:44","95.9153","140.1","217.39","648","60.0","42"
"06/09/12 12:32:45","95.9264","145.4","217.41","671","60.03","41"
"06/09/12 12:37:43","95.9362","124.8","218.01","583","60.03","41"
"06/09/12 12:42:45","95.9448","139.5","217.68","645","60.0","41"
"06/09/12 12:47:44","95.9548","146.7","217.77","676","60.0","40"
"06/09/12 12:52:43","95.9639","109.7","216.99","525","60.0","40"
"06/09/12 12:57:43","95.9748","146.2","217.17","678","60.03","40"
"06/09/12 13:02:43","95.9861","144.2","217.51","665","60.03","40"
"06/09/12 13:07:43","95.9972","145.4","217.48","669","60.03","40"
"06/09/12 13:12:43","96.0084","141.5","217.39","657","60.0","41"
"06/09/12 13:17:44","96.0194","140.8","218.01","656","60.03","41"
"06/09/12 13:22:44","96.0302","140.2","217.61","648","60.0","41"
"06/09/12 13:27:45","96.0408","139.3","217.48","645","60.0","41"
"06/09/12 13:32:44","96.0515","142.5","217.17","661","60.03","41"
"06/09/12 13:37:44","96.0624","137.7","218.1","638","60.0","41"
"06/09/12 13:42:44","96.0732","136.9","217.48","635","60.0","42"
"06/09/12 13:47:45","96.0838","137.5","217.58","637","60.0","42"
"06/09/12 13:52:45","96.0943","135.2","217.56","625","60.0","42"
"06/09/12 13:57:44","96.1047","132.9","216.85","622","60.07","42"
"06/09/12 14:02:44","96.1152","134.2","217.81","625","60.03","43"
"06/09/12 14:07:44","96.1257","134.3","217.63","625","60.03","42"
"06/09/12 14:12:45","96.136","128.2","217.28","601","60.0","42"
"06/09/12 14:17:44","96.1462","132.9","216.5","620","60.03","43"
"06/09/12 14:22:43","96.1565","130.5","216.11","609","60.0","43"
"06/09/12 14:27:44","96.1665","130.4","217.31","605","60.0","43"
"06/09/12 14:32:45","96.1763","119.8","216.45","563","60.0","43"
"06/09/12 14:37:43","96.1858","124.3","215.98","586","60.0","43"
"06/09/12 14:42:43","96.1953","121.0","215.99","570","60.0","43"
"06/09/12 14:47:44","96.2047","117.7","216.21","554","60.0","43"
"06/09/12 14:52:44","96.2139","120.8","216.42","569","60.0","43"
"06/09/12 14:57:43","96.2232","124.0","216.19","584","60.0","44"
"06/09/12 15:02:43","96.2328","118.9","216.06","560","60.03","44"
"06/09/12 15:07:45","96.2413","102.1","215.77","492","60.0","44"
"06/09/12 15:12:44","96.2486","92.7","214.85","450","60.0","43"
"06/09/12 15:17:43","96.2562","102.8","215.01","493","60.0","43"
"06/09/12 15:22:45","96.2643","95.8","215.06","460","60.03","43"
"06/09/12 15:27:43","96.2705","63.8","214.03","326","60.03","43"
"06/09/12 15:32:44","96.2757","71.4","214.71","358","60.03","42"
"06/09/12 15:37:43","96.2816","85.3","214.61","418","60.0","42"
"06/09/12 15:42:45","96.2895","104.3","215.63","501","60.0","42"
"06/09/12 15:47:44","96.2972","93.0","215.82","451","60.0","42"
"06/09/12 15:52:44","96.3041","84.8","215.49","416","60.03","43"
"06/09/12 15:57:43","96.3099","68.6","214.69","345","60.0","42"
"06/09/12 16:02:44","96.3155","78.3","215.42","385","60.03","41"
"06/09/12 16:07:45","96.3228","98.8","215.83","476","60.03","40"
"06/09/12 16:12:44","96.3299","84.3","214.89","416","60.03","39"
"06/09/12 16:17:43","96.3367","92.1","215.41","446","59.96","38"
"06/09/12 16:22:44","96.3435","88.1","215.75","430","60.0","38"
"06/09/12 16:27:44","96.3498","78.0","215.03","386","60.0","37"
"06/09/12 16:32:44","96.3563","84.1","215.27","417","60.07","37"
"06/09/12 16:37:44","96.3624","62.2","214.88","319","60.0","36"
"06/09/12 16:42:44","96.3677","76.8","214.74","383","60.03","36"
"06/09/12 16:47:44","96.372","67.5","215.27","365","60.0","35"
"06/09/12 16:52:44","96.3767","81.2","215.39","401","60.0","35"
"06/09/12 16:57:44","96.3828","74.7","215.33","372","60.0","34"
"06/09/12 17:02:44","96.3883","66.9","215.98","339","60.0","34"
"06/09/12 17:07:45","96.3932","62.0","214.95","319","60.03","33"
"06/09/12 17:12:44","96.3973","43.9","215.74","335","60.03","33"
"06/09/12 17:17:44","96.4012","48.4","215.35","382","60.03","32"
"06/09/12 17:22:43","96.405","47.1","215.58","412","60.03","32"
"06/09/12 17:27:44","96.4088","40.1","214.91","377","60.03","31"
"06/09/12 17:32:45","96.4123","45.1","215.55","354","60.03","31"
"06/09/12 17:37:44","96.4156","46.1","214.37","292","60.0","30"
"06/09/12 17:42:43","96.4186","38.0","213.61","310","60.0","30"
"06/09/12 17:47:43","96.4213","34.8","213.97","298","60.03","29"
"06/09/12 17:52:44","96.4239","30.6","213.73","87","60.03","29"
"06/09/12 17:57:44","96.4262","22.2","213.88","187","60.0","28"
"06/09/12 18:02:45","96.4283","35.7","214.0","216","60.03","28"
"06/09/12 18:07:43","96.4301","28.1","213.65","96","60.03","27"
"06/09/12 18:12:44","96.4317","21.5","213.62","32","60.0","27"
"06/09/12 18:17:45","96.4331","17.1","214.44","167","60.0","27"
"06/09/12 18:22:44","96.4344","22.1","213.55","182","60.03","27"
"06/09/12 18:27:43","96.4354","9.9","214.05","0","60.03","26"
"06/09/12 18:32:46","96.4363","4.8","214.08","26","60.0","26"
"06/09/12 18:37:45","96.437","10.4","213.92","149","60.0","26"
"06/09/12 18:42:44","96.4377","0.0","213.79","0","60.0","26"
"06/09/12 18:47:45","96.4382","12.4","213.44","4","60.0","26"
"06/09/12 18:52:43","96.4387","0.0","212.97","0","60.0","26"
"06/09/12 18:57:44","96.4391","0.0","213.88","0","60.0","26"
"06/09/12 19:02:45","96.4395","13.4","214.27","7","60.03","25"
"06/09/12 19:07:43","96.4398","0.0","213.64","0","60.03","25"
"06/09/12 19:12:44","96.4402","0.0","214.26","0","60.0","25"
"06/09/12 19:17:45","96.4405","0.0","213.97","0","60.03","25"
"06/09/12 19:22:45","96.4408","0.0","214.68","0","60.03","25"
"06/09/12 19:27:43","96.441","0.1","213.6","0","60.03","25"
"06/09/12 19:32:44","96.4413","6.4","212.99","213","60.0","25"
"06/09/12 19:37:44","96.4415","11.4","213.92","3","60.0","25"
"06/10/12 06:07:02","96.4432","0.0","213.51","0","60.03","23"
"06/10/12 06:12:02","96.4436","0.0","213.78","0","60.0","23"
"06/10/12 06:17:03","96.444","0.0","213.49","0","60.03","23"
"06/10/12 06:22:01","96.4445","14.7","212.83","6","60.03","23"
"06/10/12 06:27:02","96.4452","14.1","214.67","38","60.03","23"
"06/10/12 06:32:02","96.446","14.0","214.11","1","60.03","24"
"06/10/12 06:37:03","96.447","14.2","214.0","8","60.03","24"
"06/10/12 06:42:03","96.4482","13.1","214.28","8","60.0","24"
"06/10/12 06:47:01","96.4495","17.2","213.5","20","60.03","24"
"06/10/12 06:52:01","96.4511","19.6","213.32","50","60.0","24"
"06/10/12 06:57:03","96.4529","17.2","214.2","24","60.03","25"
"06/10/12 07:02:02","96.4549","29.5","213.49","31","60.03","25"
"06/10/12 07:07:02","96.4572","34.6","213.48","239","60.03","25"
"06/10/12 07:12:01","96.4597","32.6","214.13","95","60.0","26"
"06/10/12 07:17:02","96.4624","33.0","213.94","96","60.0","26"
"06/10/12 07:22:02","96.4654","44.5","214.03","233","60.03","26"
"06/10/12 07:27:02","96.4686","49.0","213.79","333","60.03","27"
"06/10/12 07:32:02","96.472","37.4","213.71","338","60.03","27"
"06/10/12 07:37:02","96.4756","51.7","214.18","236","60.0","27"
"06/10/12 07:42:02","96.4794","51.3","214.09","131","60.03","27"
"06/10/12 07:47:03","96.4834","48.6","213.66","190","60.0","28"
"06/10/12 07:52:01","96.4872","45.1","213.94","400","60.0","29"
"06/10/12 07:57:01","96.4911","59.2","214.15","349","60.0","29"
"06/10/12 08:02:02","96.4953","45.7","214.79","413","60.0","30"
"06/10/12 08:07:02","96.4996","47.9","214.64","411","60.0","30"
"06/10/12 08:12:03","96.5043","59.2","214.9","159","60.0","31"
"06/10/12 08:17:02","96.51","73.8","215.12","367","60.0","31"
"06/10/12 08:22:02","96.5155","68.2","215.89","341","59.96","32"
"06/10/12 08:27:03","96.521","72.0","215.95","358","60.0","32"
"06/10/12 08:32:01","96.5267","79.3","216.27","391","60.0","32"
"06/10/12 08:37:03","96.5331","85.3","216.07","417","60.03","32"
"06/10/12 08:42:02","96.5399","85.2","217.24","410","60.03","33"
"06/10/12 08:47:02","96.5462","80.3","216.55","392","60.0","33"
"06/10/12 08:52:02","96.5528","90.8","216.38","441","60.0","33"
"06/10/12 08:57:03","96.5602","96.5","216.99","462","60.03","33"